User: anonymous   Login
Location: Grisols
(45.0093°N, 3.1167°E)
Time: 15:55:06
(UTC+00:00)
Language:

STARLINK-29 - Orbit

View from above orbital plane
View from above orbital plane
View from above satellite
View from above satellite

Ground track
Ground track

The orbit data is extracted from the following two-line orbital elements,

1 44243U 19029J   19342.25001157 -.00008542  00000-0 -19602-3 0  9990
2 44243  53.0014 315.7260 0005348 167.8872 199.2237 15.40746738 30657
Epoch (UTC): 08 December 2019 06:00:01
Eccentricity: 0.0005348
inclination: 53.0014°
perigee height: 440 km
apogee height: 447 km
right ascension of ascending node: 315.7260°
argument of perigee: 167.8872°
revolutions per day: 15.40746738
mean anomaly at epoch: 199.2237°
orbit number at epoch: 3065

The dashed part of the orbit path shows where the satellite is in the earth's shadow,  

DLR